Date String (YYYY-MM-DD hh:mm:ss) UTC,Instrument flags,Ambient pressure (hPa),Sample flow (lpm),Bypass flow (lpm),Sample temperature (°C),Ambient temperature (°C),ASC tube jacket temperature (°C),LED temperature (°C),Box temperature (°C),Sample RH (%),Span deviation,Mass concentration (μg/m³),Mass concentration (μg/m³),Mass concentration (μg/m³)
DateTimeUTC,F1_M11,P_M11,Q1_M11,Q2_M11,T1_M11,T2_M11,T3_M11,T4_M11,T5_M11,U1_M11,ZSPAN_M11,X0_M11,X2_M11,X1_M11
2022-10-04 12:00:00,,0830.6,5.00,0.00,29.4,27.8,00.0,38.2,31.2,20.3,0000.0,0005.02,0003.08,0002.66
2022-10-04 12:01:00,,0830.6,5.00,0.00,29.4,27.8,00.0,38.2,31.3,20.3,0000.0,0005.31,0003.09,0002.67
2022-10-04 12:02:00,,0830.6,4.98,0.00,29.4,27.8,00.0,38.2,31.3,20.3,0000.0,0005.49,0003.14,0002.69
2022-10-04 12:03:00,,0830.6,5.01,0.00,29.4,27.8,00.0,38.2,31.3,20.3,0000.0,0005.55,0003.15,0002.70
2022-10-04 12:04:00,,0830.6,5.00,0.00,29.4,27.8,00.0,38.2,31.2,20.3,0000.0,0005.55,0003.16,0002.71
2022-10-04 12:05:00,,0830.6,5.00,0.00,29.4,27.8,00.0,38.2,31.2,20.2,0000.0,0005.18,0003.13,0002.71
2022-10-04 12:06:00,,0830.6,5.00,0.00,29.4,27.8,00.0,38.2,31.2,20.1,0000.0,0005.07,0003.11,0002.69
2022-10-04 12:07:00,,0830.6,5.01,0.00,29.4,27.8,00.0,38.2,31.2,19.9,0000.0,0005.20,0003.13,0002.69
2022-10-04 12:08:00,,0830.6,4.99,0.00,29.4,27.8,00.0,38.1,31.2,19.9,0000.0,0005.41,0003.15,0002.68
2022-10-04 12:09:00,,0830.6,5.01,0.00,29.4,27.8,00.0,38.1,31.2,19.9,0000.0,0005.49,0003.16,0002.67
2022-10-04 12:10:00,,0830.6,5.00,0.00,29.4,27.8,00.0,38.1,31.2,20.0,0000.0,0005.46,0003.17,0002.67
2022-10-04 12:11:00,,0830.6,5.01,0.00,29.4,27.8,00.0,38.1,31.2,20.0,0000.0,0005.13,0003.17,0002.68
2022-10-04 12:12:00,,0830.7,5.00,0.00,29.4,27.7,00.0,38.1,31.2,20.0,0000.0,0004.83,0003.15,0002.66
2022-10-04 12:13:00,,0830.6,4.99,0.00,29.3,27.7,00.0,38.1,31.2,20.0,0000.0,0004.70,0003.13,0002.66
2022-10-04 12:14:00,,0830.6,5.01,0.00,29.3,27.8,00.0,38.1,31.2,20.0,0000.0,0004.64,0003.10,0002.64
2022-10-04 12:15:00,,0830.6,5.00,0.00,29.3,27.7,00.0,38.1,31.2,20.0,0000.0,0004.71,0003.09,0002.63
2022-10-04 12:16:00,,0830.6,4.99,0.00,29.3,27.7,00.0,38.1,31.2,20.0,0000.0,0005.13,0003.14,0002.64
2022-10-04 12:17:00,,0830.6,5.00,0.00,29.3,27.7,00.0,38.1,31.2,20.0,0000.0,0005.13,0003.15,0002.65
2022-10-04 12:18:00,,0830.6,5.01,0.00,29.3,27.7,00.0,38.1,31.2,20.0,0000.0,0005.17,0003.16,0002.65
2022-10-04 12:19:00,,0830.6,5.00,0.00,29.3,27.7,00.0,38.1,31.2,19.9,0000.0,0005.10,0003.15,0002.66
2022-10-04 12:20:00,,0830.6,4.99,0.00,29.3,27.7,00.0,38.1,31.1,19.9,0000.0,0005.04,0003.14,0002.66
2022-10-04 12:21:00,,0830.6,5.01,0.00,29.3,27.7,00.0,38.1,31.1,19.9,0000.0,0004.87,0003.15,0002.67
2022-10-04 12:22:00,,0830.6,5.01,0.00,29.3,27.7,00.0,38.1,31.1,19.9,0000.0,0004.92,0003.15,0002.67
2022-10-04 12:23:00,,0830.6,4.99,0.00,29.3,27.7,00.0,38.1,31.1,19.9,0000.0,0004.94,0003.16,0002.68
2022-10-04 12:24:00,,0830.6,5.00,0.00,29.3,27.7,00.0,38.1,31.1,19.9,0000.0,0004.97,0003.17,0002.68
2022-10-04 12:25:00,,0830.6,5.00,0.00,29.3,27.7,00.0,38.1,31.1,19.9,0000.0,0005.08,0003.20,0002.69
2022-10-04 12:26:00,,0830.6,5.01,0.00,29.3,27.7,00.0,38.1,31.2,19.9,0000.0,0005.14,0003.22,0002.71
2022-10-04 12:27:00,,0830.6,4.99,0.00,29.3,27.7,00.0,38.1,31.2,19.9,0000.0,0004.82,0003.23,0002.73
2022-10-04 12:28:00,,0830.7,5.01,0.00,29.3,27.7,00.0,38.1,31.2,19.9,0000.0,0004.83,0003.22,0002.74
2022-10-04 12:29:00,,0830.7,4.99,0.00,29.3,27.7,00.0,38.1,31.2,19.9,0000.0,0005.46,0003.24,0002.76
2022-10-04 12:30:00,,0830.8,5.01,0.00,29.3,27.7,00.0,38.1,31.1,19.8,0000.0,0005.73,0003.24,0002.77
2022-10-04 12:31:00,,0830.8,5.00,0.00,29.3,27.7,00.0,38.1,31.2,19.8,0000.0,0005.74,0003.24,0002.77
2022-10-04 12:32:00,,0830.8,4.99,0.00,29.3,27.7,00.0,38.1,31.1,19.9,0000.0,0005.66,0003.21,0002.76
2022-10-04 12:33:00,,0830.7,5.00,0.00,29.3,27.8,00.0,38.1,31.1,19.9,0000.0,0005.53,0003.19,0002.75
2022-10-04 12:34:00,,0830.7,5.00,0.00,29.3,27.8,00.0,38.1,31.1,19.9,0000.0,0005.61,0003.20,0002.77
2022-10-04 12:35:00,,0830.7,4.99,0.00,29.3,27.8,00.0,38.1,31.1,19.9,0000.0,0005.61,0003.20,0002.78
2022-10-04 12:36:00,,0830.7,5.01,0.00,29.3,27.7,00.0,38.1,31.1,19.9,0000.0,0005.56,0003.19,0002.80
2022-10-04 12:37:00,,0830.7,4.99,0.00,29.3,27.7,00.0,38.1,31.1,19.8,0000.0,0005.57,0003.19,0002.80
2022-10-04 12:38:00,,0830.8,5.01,0.00,29.3,27.7,00.0,38.1,31.1,19.8,0000.0,0005.51,0003.17,0002.79
2022-10-04 12:39:00,,0830.8,5.01,0.00,29.3,27.7,00.0,38.1,31.1,19.8,0000.0,0005.43,0003.16,0002.79
2022-10-04 12:40:00,,0830.7,4.99,0.00,29.3,27.7,00.0,38.1,31.1,19.8,0000.0,0005.03,0003.15,0002.78
2022-10-04 12:41:00,,0830.7,5.00,0.00,29.3,27.7,00.0,38.1,31.1,19.8,0000.0,0004.51,0003.15,0002.79
2022-10-04 12:42:00,,0830.7,5.00,0.00,29.3,27.7,00.0,38.1,31.1,19.8,0000.0,0004.47,0003.16,0002.81
2022-10-04 12:43:00,,0830.8,5.00,0.00,29.3,27.7,00.0,38.1,31.1,19.8,0000.0,0004.46,0003.17,0002.80
2022-10-04 12:44:00,,0830.8,5.01,0.00,29.3,27.7,00.0,38.1,31.1,19.9,0000.0,0004.44,0003.17,0002.80
2022-10-04 12:45:00,,0830.8,4.99,0.00,29.3,27.7,00.0,38.1,31.1,20.0,0000.0,0004.39,0003.17,0002.80
2022-10-04 12:46:00,,0830.8,5.01,0.00,29.3,27.8,00.0,38.1,31.2,20.0,0000.0,0004.42,0003.18,0002.81
2022-10-04 12:47:00,,0830.8,4.99,0.00,29.3,27.8,00.0,38.1,31.1,20.1,0000.0,0004.36,0003.16,0002.80
2022-10-04 12:48:00,,0830.8,5.01,0.00,29.3,27.7,00.0,38.0,31.1,20.1,0000.0,0004.47,0003.17,0002.80
2022-10-04 12:49:00,,0830.8,5.01,0.00,29.3,27.7,00.0,38.0,31.1,20.1,0000.0,0004.72,0003.22,0002.82
2022-10-04 12:50:00,,0830.8,4.98,0.00,29.3,27.7,00.0,38.0,31.1,20.1,0000.0,0004.76,0003.23,0002.82
2022-10-04 12:51:00,,0830.8,5.01,0.00,29.3,27.7,00.0,38.0,31.1,20.1,0000.0,0004.71,0003.24,0002.84
2022-10-04 12:52:00,,0830.8,4.99,0.00,29.3,27.7,00.0,38.0,31.1,20.2,0000.0,0004.56,0003.21,0002.84
2022-10-04 12:53:00,,0830.8,5.00,0.00,29.3,27.7,00.0,38.0,31.1,20.2,0000.0,0005.01,0003.22,0002.85
2022-10-04 12:54:00,,0830.8,5.00,0.00,29.3,27.7,00.0,38.0,31.1,20.2,0000.0,0005.17,0003.24,0002.89
2022-10-04 12:55:00,,0830.8,4.99,0.00,29.3,27.7,00.0,38.0,31.1,20.3,0000.0,0005.36,0003.27,0002.90
2022-10-04 12:56:00,,0830.7,5.00,0.00,29.3,27.6,00.0,38.0,31.1,20.3,0000.0,0005.28,0003.26,0002.91
2022-10-04 12:57:00,,0830.7,5.01,0.00,29.2,27.6,00.0,38.0,31.1,20.3,0000.0,0005.20,0003.25,0002.92
2022-10-04 12:58:00,,0830.7,4.99,0.00,29.2,27.6,00.0,38.0,31.1,20.3,0000.0,0005.26,0003.27,0002.92
2022-10-04 12:59:00,,0830.7,5.00,0.00,29.2,27.6,00.0,38.0,31.0,20.3,0000.0,0005.17,0003.27,0002.93
